Location: Eboldshausen
(51.7766°N, 10.0050°E)
Time: 01:14:25
(UTC+00:00)

Cosmos 2297 Rocket - Pass Details

Date: 15 November 2025
Orbit: 837 x 844 km, 71.0° (Epoch: 13 December)

Event Time Altitude Azimuth Distance (km) Brightness Sun altitude
Rises 19:14:06 0° 329° (NNW) 3,411 5.9 -34.4°
Reaches altitude 10° 19:17:12 10° 345° (NNW) 2,474 4.9 -34.9°
Enters shadow 19:18:22 14° 355° (N) 2,187 4.5 -35.1°
